| time (UTC) | temp F | wind direction | speed MPH | gust MPH | rain 1hr in | rain 24hr in | rain mn in | humidity % | barometer mb |
| 20260507201525 | 56 | 277 | 3.0 | 11.0 | 0.00 | 0.00 | 0.00 | 1010.6 | |
| 20260507200013 | 56 | 341 | 4.0 | 11.0 | 0.00 | 0.00 | 0.00 | 42 | 1010.7 |
| 20260507194516 | 57 | 51 | 4.0 | 9.0 | 0.00 | 0.00 | 0.00 | 50 | 1010.8 |
| 20260507193037 | 57 | 313 | 5.0 | 10.0 | 0.00 | 0.00 | 0.00 | 51 | 1011.0 |
| 20260507191508 | 57 | 291 | 4.0 | 10.0 | 0.00 | 0.00 | 0.00 | 51 | 1011.0 |
| 20260507190011 | 57 | 264 | 4.0 | 11.0 | 0.00 | 0.00 | 0.00 | 43 | 1011.0 |
| 20260507184511 | 57 | 301 | 3.0 | 9.0 | 0.00 | 0.00 | 0.00 | 42 | 1011.1 |
| 20260507183009 | 57 | 258 | 3.0 | 9.0 | 0.00 | 0.00 | 0.00 | 46 | 1011.1 |
| 20260507181512 | 58 | 314 | 4.0 | 9.0 | 0.00 | 0.00 | 0.00 | 44 | 1011.1 |
| 20260507180010 | 58 | 29 | 4.0 | 10.0 | 0.00 | 0.00 | 0.00 | 46 | 1011.1 |
| 20260507174517 | 57 | 274 | 2.0 | 10.0 | 0.00 | 0.00 | 0.00 | 44 | 1011.1 |
| 20260507173017 | 56 | 316 | 2.0 | 9.0 | 0.00 | 0.00 | 0.00 | 52 | 1011.2 |
| 20260507171512 | 57 | 317 | 2.0 | 9.0 | 0.00 | 0.00 | 0.00 | 54 | 1011.4 |
| 20260507170010 | 57 | 352 | 2.0 | 7.0 | 0.00 | 0.00 | 0.00 | 57 | 1011.5 |
| 20260507164511 | 56 | 344 | 4.0 | 12.0 | 0.00 | 0.00 | 0.00 | 53 | 1011.7 |
| 20260507163012 | 55 | 292 | 3.0 | 6.0 | 0.00 | 0.00 | 0.00 | 54 | 1011.8 |
| 20260507161512 | 55 | 330 | 4.0 | 8.0 | 0.00 | 0.00 | 0.00 | 57 | 1012.0 |
| 20260507160013 | 55 | 348 | 2.0 | 9.0 | 0.00 | 0.00 | 0.00 | 54 | 1012.2 |
| 20260507154508 | 55 | 351 | 1.0 | 9.0 | 0.00 | 0.00 | 0.00 | 52 | 1012.2 |
| 20260507153010 | 55 | 346 | 2.0 | 8.0 | 0.00 | 0.00 | 0.00 | 54 | 1012.4 |
| 20260507151528 | 54 | 360 | 1.0 | 9.0 | 0.00 | 0.00 | 0.00 | 62 | 1012.4 |
| 20260507150012 | 55 | 38 | 3.0 | 12.0 | 0.00 | 0.00 | 0.00 | 59 | 1012.4 |
| 20260507144510 | 54 | 273 | 1.0 | 9.0 | 0.00 | 0.00 | 0.00 | 59 | 1012.3 |
| 20260507143027 | 54 | 5 | 2.0 | 6.0 | 0.00 | 0.00 | 0.00 | 62 | 1012.4 |
| 20260507141521 | 52 | 43 | 2.0 | 5.0 | 0.00 | 0.01 | 0.00 | 66 | 1012.6 |
| 20260507140016 | 50 | 215 | 0.0 | 3.0 | 0.00 | 0.01 | 0.00 | 62 | 1012.7 |
| 20260507134514 | 49 | 229 | 1.0 | 3.0 | 0.00 | 0.01 | 0.00 | 64 | 1012.8 |
| 20260507133028 | 48 | 153 | 2.0 | 4.0 | 0.00 | 0.01 | 0.00 | 67 | 1012.9 |
| 20260507131528 | 47 | 169 | 2.0 | 4.0 | 0.00 | 0.01 | 0.00 | 70 | 1013.0 |
| 20260507130040 | 46 | 150 | 2.0 | 6.0 | 0.00 | 0.01 | 0.00 | 66 | 1013.1 |
| 20260507124522 | 46 | 155 | 1.0 | 6.0 | 0.00 | 0.02 | 0.00 | 66 | 1013.2 |
| 20260507123021 | 46 | 130 | 1.0 | 8.0 | 0.00 | 0.02 | 0.00 | 72 | 1013.2 |
| 20260507121518 | 45 | 78 | 1.0 | 3.0 | 0.00 | 0.03 | 0.00 | 85 | 1013.1 |
| 20260507120016 | 42 | 53 | 0.0 | 2.0 | 0.00 | 0.04 | 0.00 | 91 | 1013.4 |
| 20260507114527 | 41 | 53 | 0.0 | 2.0 | 0.00 | 0.04 | 0.00 | 91 | 1013.4 |
| 20260507113024 | 41 | 53 | 0.0 | 0.0 | 0.00 | 0.05 | 0.00 | 91 | 1013.4 |
| 20260507111526 | 41 | 53 | 0.0 | 0.0 | 0.00 | 0.06 | 0.00 | 91 | 1013.3 |
| 20260507110008 | 40 | 53 | 0.0 | 0.0 | 0.00 | 0.07 | 0.00 | 92 | 1012.9 |
| 20260507104511 | 39 | 53 | 0.0 | 0.0 | 0.00 | 0.08 | 0.00 | 92 | 1012.6 |
| 20260507103011 | 39 | 53 | 0.0 | 2.0 | 0.00 | 0.09 | 0.00 | 92 | 1012.5 |
| 20260507101510 | 40 | 32 | 0.0 | 0.0 | 0.00 | 0.10 | 0.00 | 93 | 1012.4 |
| 20260507100010 | 39 | 32 | 0.0 | 0.0 | 0.00 | 0.12 | 0.00 | 93 | 1012.5 |
| 20260507094507 | 39 | 32 | 0.0 | 0.0 | 0.00 | 0.14 | 0.00 | 93 | 1012.4 |
| 20260507093007 | 39 | 32 | 0.0 | 0.0 | 0.00 | 0.17 | 0.00 | 93 | 1012.3 |
| 20260507091509 | 38 | 32 | 0.0 | 0.0 | 0.00 | 0.19 | 0.00 | 93 | 1012.5 |
| 20260507090010 | 38 | 32 | 0.0 | 0.0 | 0.00 | 0.23 | 0.00 | 92 | 1012.4 |
| 20260507084512 | 38 | 32 | 0.0 | 0.0 | 0.00 | 0.25 | 0.00 | 92 | 1012.3 |
| 20260507083010 | 39 | 32 | 0.0 | 2.0 | 0.00 | 0.28 | 0.00 | 92 | 1012.7 |
| 20260507081511 | 38 | 32 | 0.0 | 0.0 | 0.00 | 0.30 | 0.00 | 92 | 1012.5 |
| 20260507080010 | 39 | 32 | 0.0 | 0.0 | 0.00 | 0.31 | 0.00 | 92 | 1012.5 |
| 20260507074509 | 39 | 32 | 0.0 | 0.0 | 0.00 | 0.32 | 0.00 | 92 | 1012.6 |
| 20260507073030 | 39 | 32 | 0.0 | 0.0 | 0.00 | 0.33 | 0.00 | 92 | 1012.6 |
| 20260507071523 | 39 | 32 | 0.0 | 0.0 | 0.00 | 0.34 | 0.00 | 92 | 1012.4 |
| 20260507070022 | 40 | 32 | 0.0 | 0.0 | 0.00 | 0.36 | 0.00 | 92 | 1012.4 |
| 20260507064522 | 40 | 32 | 0.0 | 0.0 | 0.00 | 0.38 | 0.00 | 91 | 1012.7 |
| 20260507063017 | 41 | 32 | 0.0 | 0.0 | 0.00 | 0.41 | 0.00 | 91 | 1013.0 |
| 20260507061529 | 42 | 32 | 0.0 | 0.0 | 0.00 | 0.43 | 0.00 | 90 | 1013.0 |
| 20260507060024 | 42 | 32 | 0.0 | 0.0 | 0.00 | 0.45 | 0.00 | 90 | 1012.8 |
| 20260507054531 | 42 | 32 | 0.0 | 0.0 | 0.00 | 0.46 | 0.00 | 90 | 1013.0 |
| 20260507053022 | 43 | 32 | 0.0 | 0.0 | 0.00 | 0.48 | 0.00 | 90 | 1013.1 |
| 20260507051522 | 43 | 32 | 0.0 | 0.0 | 0.00 | 0.51 | 0.00 | 89 | 1013.2 |
| 20260507050024 | 43 | 32 | 0.0 | 0.0 | 0.00 | 0.54 | 0.00 | 88 | 1013.3 |
| 20260507044535 | 44 | 32 | 0.0 | 0.0 | 0.00 | 0.57 | 0.00 | 87 | 1013.5 |
| 20260507043026 | 44 | 32 | 0.0 | 0.0 | 0.00 | 0.58 | 0.00 | 87 | 1013.5 |
| 20260507041531 | 44 | 32 | 0.0 | 2.0 | 0.00 | 0.64 | 0.00 | 86 | 1013.4 |
| 20260507040025 | 44 | 32 | 0.0 | 0.0 | 0.00 | 0.67 | 0.00 | 86 | 1013.2 |
| 20260507034522 | 44 | 32 | 0.0 | 2.0 | 0.00 | 0.67 | 0.67 | 86 | 1013.2 |
| 20260507033020 | 44 | 32 | 0.0 | 0.0 | 0.00 | 0.69 | 0.67 | 87 | 1013.3 |
| 20260507031525 | 44 | 32 | 0.0 | 2.0 | 0.00 | 0.69 | 0.67 | 87 | 1013.4 |
| 20260507030027 | 44 | 32 | 0.0 | 2.0 | 0.00 | 0.71 | 0.67 | 86 | 1013.4 |
| 20260507024527 | 44 | 33 | 0.0 | 2.0 | 0.00 | 0.74 | 0.67 | 87 | 1013.3 |
| 20260507023025 | 45 | 33 | 0.0 | 2.0 | 0.00 | 0.77 | 0.67 | 87 | 1013.2 |
| 20260507021525 | 44 | 34 | 0.0 | 1.0 | 0.00 | 0.78 | 0.67 | 86 | 1013.2 |
| 20260507020004 | 44 | 34 | 0.0 | 2.0 | 0.00 | 0.78 | 0.67 | 86 | 1013.4 |
| 20260507014510 | 44 | 34 | 0.0 | 2.0 | 0.00 | 0.78 | 0.67 | 86 | 1013.7 |
| 20260507013006 | 44 | 34 | 0.0 | 0.0 | 0.00 | 0.79 | 0.67 | 86 | 1013.5 |
| 20260507011509 | 44 | 34 | 0.0 | 0.0 | 0.00 | 0.80 | 0.67 | 86 | 1013.3 |
| 20260507010003 | 44 | 34 | 0.0 | 0.0 | 0.00 | 0.81 | 0.67 | 86 | 1013.1 |
| 20260507004517 | 44 | 34 | 0.0 | 0.0 | 0.00 | 0.82 | 0.67 | 84 | 1013.0 |
| 20260507003005 | 45 | 34 | 0.0 | 2.0 | 0.00 | 0.84 | 0.67 | 85 | 1012.9 |
| 20260507001503 | 45 | 34 | 0.0 | 2.0 | 0.00 | 0.88 | 0.67 | 85 | 1012.8 |
| 20260507000011 | 45 | 34 | 0.0 | 2.0 | 0.00 | 0.90 | 0.67 | 84 | 1012.4 |
| 20260506234508 | 45 | 23 | 1.0 | 2.0 | 0.00 | 0.93 | 0.67 | 84 | 1012.5 |
| 20260506233006 | 45 | 23 | 0.0 | 2.0 | 0.00 | 0.95 | 0.67 | 84 | 1012.4 |
| 20260506231522 | 45 | 36 | 1.0 | 4.0 | 0.00 | 0.97 | 0.67 | 84 | 1012.4 |
| 20260506230008 | 46 | 22 | 0.0 | 2.0 | 0.00 | 0.98 | 0.67 | 85 | 1012.2 |
| 20260506224504 | 46 | 40 | 0.0 | 3.0 | 0.00 | 1.02 | 0.67 | 86 | 1012.1 |
| 20260506223009 | 45 | 30 | 2.0 | 6.0 | 0.00 | 1.04 | 0.67 | 85 | 1011.9 |
| 20260506221508 | 46 | 26 | 1.0 | 11.0 | 0.00 | 1.07 | 0.67 | 85 | 1011.5 |
| 20260506220010 | 46 | 44 | 3.0 | 9.0 | 0.00 | 1.11 | 0.67 | 86 | 1011.2 |
| 20260506214511 | 45 | 73 | 3.0 | 8.0 | 0.00 | 1.15 | 0.67 | 87 | 1011.1 |
| 20260506213008 | 45 | 300 | 4.0 | 10.0 | 0.00 | 1.21 | 0.67 | 87 | 1011.1 |
| 20260506211514 | 46 | 344 | 3.0 | 15.0 | 0.00 | 1.25 | 0.67 | 87 | 1010.9 |
| 20260506210007 | 49 | 9 | 4.0 | 13.0 | 0.00 | 1.31 | 0.67 | 84 | 1010.6 |
| 20260506204511 | 50 | 307 | 4.0 | 10.0 | 0.00 | 1.35 | 0.67 | 85 | 1010.3 |
| 20260506203014 | 51 | 298 | 5.0 | 17.0 | 0.00 | 1.37 | 0.67 | 81 | 1010.4 |